Regional Weather Roundup
Issued by NWS Kansas City/Pleasant Hill, MO

Home | Current Version | Previous Version | Text Only | Print | Product List | Glossary On
Versions: 1 2 3 4 5 6 7 8 9 10 11 12 13 14 15 16 17 18 19 20 21 22 23 24 25 26 27 28 29 30 31 32 33 34 35 36 37 38 39 40 41 42 43 44 45 46 47 48 49 50
000
ASUS43 KEAX 061010
RWREAX

WEATHER ROUNDUP FOR EASTERN KANSAS AND NORTHWEST MISSOURI
NATIONAL WEATHER SERVICE KANSAS CITY/PLEASANT HILL MO
400 AM CST SAT FEB 06 2016

KSZ040-057-103>105-MOZ028-029-037-043-061100-
...KANSAS CITY METROPOLITAN AREA...

CITY           SKY/WX    TMP DP  RH WIND       PRES   REMARKS
K.C. INTL      CLEAR     29  23  78 NE5       30.24F WCI  24
K.C. DOWNTOWN  CLEAR     30  24  78 CALM      30.25F
LEES SUMMIT    CLEAR     31  22  69 NW6       30.24R WCI  25
OLATHE - IXD   CLEAR     29  23  78 CALM      30.24F
OLATHE - OJC   CLEAR     31  23  72 NW5       30.24S WCI  26
LAWRENCE       CLEAR     22  20  92 W5        30.26S WCI  16

$$

MOZ001>008-011>017-020>025-030>033-038>040-044>046-053-054-061100-
...NORTHERN AND CENTRAL MISSOURI...

CITY           SKY/WX    TMP DP  RH WIND       PRES   REMARKS
ST. JOSEPH     CLEAR     25  21  85 CALM      30.26F
MOSBY          SUNNY     27  27 100 CALM      30.25F
WARRENSBURG    CLEAR     34  23  64 S5        30.25S WCI  30
WHITEMAN AFB   CLEAR     33  22  63 S7        30.24S WCI  26
CLINTON          N/A     34  25  69 S5        30.26F WCI  30
SEDALIA        CLEAR     35  21  56 S8        30.26F WCI  29
WARSAW         NOT AVBL
CHILLICOTHE      N/A     26  22  84 CALM      30.26F
KIRKSVILLE     CLEAR     24  17  74 S6        30.25F WCI  17

$$

MOZ041-047>049-056>058-063>065-088>090-097-061100-
...EASTERN AND SOUTHERN MISSOURI...

CITY           SKY/WX    TMP DP  RH WIND       PRES   REMARKS
ST. LOUIS INTL PTCLDY    30  21  69 SE6       30.31S WCI  24
SPIRIT OF STL  CLEAR     26  22  84 CALM      30.30S
COLUMBIA       CLOUDY    31  19  61 S5        30.26F WCI  26
JEFFERSON CITY CLOUDY    29  21  72 SE6       30.29F WCI  23
ROLLA          CLEAR     31  19  61 SW9       30.26S WCI  23
OSAGE BEACH    CLOUDY    30  19  64 CALM      30.28S
SPRINGFIELD    PTCLDY    31  17  56 S7        30.26F WCI  24
BRANSON        CLOUDY    37  14  38 SW3       30.29F
JOPLIN         CLEAR     35  18  49 S8        30.28S WCI  29
WEST PLAINS    PTCLDY    34  14  43 SW7       30.30F WCI  28

$$

IAZ060-094-KSZ022-034>040-054-083-096-NEZ052-066-093-061100-
...KANSAS...SOUTHEAST NEBRASKA AND IOWA...

CITY           SKY/WX    TMP DP  RH WIND       PRES   REMARKS
TOPEKA         CLEAR     28  22  78 W5        30.27S WCI  23
MANHATTAN      CLEAR     24  22  91 SW5       30.29S WCI  18
EMPORIA        PTCLDY    27  23  85 W6        30.27R WCI  20
CHANUTE        PTCLDY    34  26  72 W7        30.26F WCI  28
WICHITA        CLEAR     28  24  85 NW8       30.30S WCI  20
OMAHA          CLOUDY    32  29  88 NW5       30.25F WCI  27
LINCOLN        CLEAR     24  23  96 W5        30.28F WCI  18
FALLS CITY     CLEAR     28  25  88 W6        30.26F WCI  22
LAMONI         CLEAR     25  20  81 W5        30.23S WCI  19
DES MOINES     CLOUDY    30  26  85 SW5       30.24S WCI  25

$$




USA.gov is the U.S. government's official web portal to all federal, state and local government web resources and services.